Weather History for Ontario, OR

Change the Weather History Date:

Tuesday, November 20, 2012

  Actual Average Record
Temperature  
Mean Temperature 55 °F 35 °F  
Max Temperature 60 °F 45 °F 70 °F (2003)
Min Temperature 49 °F 25 °F 5 °F (1994)
Degree Days  
Heating Degree Days 10 30  
Month to date heating degree days 431 516  
Since 1 July heating degree days 950 1109  
Cooling Degree Days 0 0  
Month to date cooling degree days 0 0  
Year to date cooling degree days 1091 852  
Growing Degree Days 5 (Base 50)    
Moisture  
Dew Point 41 °F    
Average Humidity 60    
Maximum Humidity 71    
Minimum Humidity 49    
Precipitation  
Precipitation T in 0.04 in 0.27 in (2013)
Month to date precipitation 0.43 0.70  
Year to date precipitation 7.12 7.98  
Sea Level Pressure  
Sea Level Pressure 29.88 in    
Wind  
Wind Speed 14 mph (SSE)    
Max Wind Speed 28 mph    
Max Gust Speed 38 mph    
Visibility 10 miles    
Events      
T = Trace of Precipitation, MM = Missing Value Source: NWS Daily Summary

Daily Weather History Graph

Daily Weather History Graph

Search for Another Location

Airport:

Trip Planner

Search our weather history database for the weather conditions in past years. The results will help you decide how hot, cold, wet, or windy it might be!

Date:

Astronomy

Nov. 20, 2012 Rise Set
Actual Time 7:50 AM MST 5:16 PM MST
Civil Twilight 7:18 AM MST 5:48 PM MST
Nautical Twilight 6:43 AM MST 6:23 PM MST
Astronomical Twilight 6:08 AM MST 6:58 PM MST
Moon 1:19 PM MST (11/20) No Moon Set
Length of Visible Light 10h 29m
Length of Day
9h 26m
First Quarter, 52% of the Moon is Illuminated
Nov 20
First Quarter
Nov 28
Full
Dec 6
Last Quarter
Dec 13
New
Dec 19
First Quarter

Hourly Weather History & Observations

Time (MST) Temp. Dew Point Humidity Pressure Visibility Wind Dir Wind Speed Gust Speed Precip Events Conditions
12:53 AM 53.1 °F 39.9 °F 61% 29.99 in 10.0 mi SSE 17.3 mph 21.9 mph N/A   Mostly Cloudy
1:53 AM 51.1 °F 39.9 °F 66% 29.97 in 10.0 mi SSE 12.7 mph - N/A   Overcast
2:53 AM 53.1 °F 39.0 °F 59% 29.98 in 10.0 mi SE 9.2 mph - N/A   Scattered Clouds
3:53 AM 50.0 °F 39.0 °F 66% 29.96 in 10.0 mi SSE 9.2 mph - N/A   Overcast
4:53 AM 50.0 °F 39.9 °F 68% 29.95 in 10.0 mi SSE 11.5 mph - N/A   Partly Cloudy
5:53 AM 50.0 °F 39.9 °F 68% 29.95 in 10.0 mi SSE 10.4 mph - N/A   Overcast
6:53 AM 51.1 °F 39.9 °F 66% 29.94 in 10.0 mi SSE 8.1 mph - N/A   Overcast
7:53 AM 50.0 °F 41.0 °F 71% 29.94 in 10.0 mi SSE 9.2 mph - N/A   Overcast
8:53 AM 54.0 °F 39.9 °F 59% 29.92 in 10.0 mi SSE 12.7 mph - N/A   Clear
9:53 AM 55.9 °F 39.9 °F 55% 29.91 in 10.0 mi SSE 17.3 mph 24.2 mph N/A   Mostly Cloudy
10:53 AM 55.9 °F 41.0 °F 57% 29.91 in 10.0 mi SSE 19.6 mph 27.6 mph N/A   Scattered Clouds
11:53 AM 57.0 °F 42.1 °F 57% 29.88 in 10.0 mi SE 24.2 mph 38.0 mph N/A   Mostly Cloudy
12:53 PM 59.0 °F 42.1 °F 53% 29.85 in 10.0 mi SE 27.6 mph 38.0 mph N/A   Partly Cloudy
1:53 PM 57.9 °F 41.0 °F 53% 29.84 in 10.0 mi SE 19.6 mph 29.9 mph N/A   Overcast
2:53 PM 60.1 °F 41.0 °F 49% 29.83 in 10.0 mi SSE 16.1 mph 28.8 mph N/A   Overcast
3:53 PM 59.0 °F 41.0 °F 51% 29.84 in 10.0 mi SE 20.7 mph 31.1 mph 0.00 in   Overcast
4:53 PM 57.9 °F 41.0 °F 53% 29.84 in 10.0 mi SSE 12.7 mph - N/A   Overcast
5:53 PM 57.9 °F 41.0 °F 53% 29.82 in 10.0 mi SSE 15.0 mph - N/A   Mostly Cloudy
6:53 PM 57.0 °F 41.0 °F 55% 29.81 in 10.0 mi SSE 19.6 mph 25.3 mph N/A   Overcast
7:53 PM 55.9 °F 42.1 °F 60% 29.82 in 10.0 mi SSE 15.0 mph - N/A   Overcast
8:53 PM 55.0 °F 41.0 °F 59% 29.82 in 10.0 mi Calm Calm - 0.00 in   Overcast
9:53 PM 53.1 °F 41.0 °F 64% 29.80 in 10.0 mi Calm Calm - N/A   Scattered Clouds
10:53 PM 54.0 °F 41.0 °F 62% 29.77 in 10.0 mi SSE 13.8 mph - N/A   Overcast
11:53 PM 54.0 °F 39.9 °F 59% 29.78 in 10.0 mi SW 11.5 mph 17.3 mph 0.00 in   Overcast